Kars, Turkey

12:10 PM +03 on May 25, 2017 (GMT +0300)
Kars

Weather History for LTCF - September, 2012

Change the Weather History Date:

Monday, September 10, 2012

  Actual Average Record
Temperature  
Mean Temperature 56 °F -  
Max Temperature 66 °F 66 °F - ()
Min Temperature 45 °F 38 °F - ()
Degree Days  
Heating Degree Days 10    
Growing Degree Days 6 (Base 50)    
Moisture  
Dew Point 46 °F    
Average Humidity 70    
Maximum Humidity 100    
Minimum Humidity 47    
Precipitation  
Precipitation 0.00 in 0.04 in - ()
Sea Level Pressure  
Sea Level Pressure 30.16 in    
Wind  
Wind Speed 5 mph ()    
Max Wind Speed 15 mph    
Max Gust Speed -    
Visibility 6.2 miles    
Events Thunderstorm    
T = Trace of Precipitation, MM = Missing Value Source: Averaged Metar Reports

Daily Weather History Graph

Daily Weather History Graph

Search for Another Location

Airport or City:

Trip Planner

Search our weather history database for the weather conditions in past years. The results will help you decide how hot, cold, wet, or windy it might be!

Date:

Astronomy

Sep. 10, 2012 Rise Set
Actual Time 5:43 AM EEST 6:24 PM EEST
Civil Twilight 5:15 AM EEST 6:52 PM EEST
Nautical Twilight 4:43 AM EEST 7:24 PM EEST
Astronomical Twilight 4:09 AM EEST 7:58 PM EEST
Moon No Moon Rise 2:39 PM EEST (9/10)
Length of Visible Light 13h 36m
Length of Day
12h 41m
Waning Crescent, 33% of the Moon is Illuminated
Sep 10
Waning Crescent
Sep 16
New
Sep 22
First Quarter
Sep 30
Full
Oct 8
Last Quarter

Hourly Weather History & Observations

Time (EEST) Temp. Windchill Dew Point Humidity Pressure Visibility Wind Dir Wind Speed Gust Speed Precip Events Conditions
12:50 AM 50.0 °F - 50.0 °F 100% 30.12 in 6.2 mi ENE 4.6 mph - N/A   Mostly Cloudy
1:50 AM 50.0 °F - 48.2 °F 94% 30.12 in 6.2 mi Variable 1.2 mph - N/A   Mostly Cloudy
3:00 AM 49 °F - 48 °F 96%  in 6 mi SE 2.3 mph - -   Partly Cloudy
3:50 AM 48.2 °F - 48.2 °F 100% 30.12 in 6.2 mi Variable 2.3 mph - N/A   Mostly Cloudy
4:50 AM 48.2 °F - 48.2 °F 100% 30.12 in 6.2 mi West 3.5 mph - N/A   Mostly Cloudy
5:50 AM 46.4 °F 45.2 °F 46.4 °F 100% 30.15 in 6.2 mi WSW 3.5 mph - N/A   Mostly Cloudy
6:50 AM 48.2 °F - 48.2 °F 100% 30.15 in 6.2 mi Calm Calm - N/A   Mostly Cloudy
7:50 AM 51.8 °F - 51.8 °F 100% 30.15 in 6.2 mi Calm Calm - N/A   Mostly Cloudy
8:50 AM 55.4 °F - 48.2 °F 77% 30.18 in 6.2 mi Calm Calm - N/A   Mostly Cloudy
9:00 AM 56 °F - 48 °F 66%  in 6 mi Calm Calm - -   Mostly Cloudy
9:50 AM 59.0 °F - 46.4 °F 63% 30.18 in 6.2 mi NE 4.6 mph - N/A   Scattered Clouds
10:50 AM 60.8 °F - 44.6 °F 55% 30.15 in 6.2 mi East 4.6 mph - N/A   Scattered Clouds
11:50 AM 62.6 °F - 44.6 °F 52% 30.15 in 6.2 mi NE 4.6 mph - N/A   Mostly Cloudy
12:50 PM 62.6 °F - 44.6 °F 52% 30.15 in 6.2 mi NNW 9.2 mph - N/A   Scattered Clouds
1:20 PM 64.4 °F - 44.6 °F 49% 30.15 in 6.2 mi North 6.9 mph - N/A Thunderstorm Thunderstorm
1:50 PM 64.4 °F - 46.4 °F 52% 30.12 in 6.2 mi North 8.1 mph - N/A Thunderstorm Thunderstorm
2:50 PM 62.6 °F - 46.4 °F 55% 30.12 in 6.2 mi North 13.8 mph - N/A   Scattered Clouds
3:00 PM 63 °F - 48 °F 47%  in 6 mi North 13.8 mph - - Thunderstorm Light Thunderstorm
3:50 PM 62.6 °F - 44.6 °F 52% 30.15 in 6.2 mi NE 11.5 mph - N/A   Scattered Clouds
4:50 PM 62.6 °F - 44.6 °F 52% 30.15 in 6.2 mi NE 15.0 mph - N/A   Scattered Clouds
5:50 PM 60.8 °F - 46.4 °F 59% 30.15 in 6.2 mi ENE 11.5 mph - N/A   Mostly Cloudy
6:50 PM 59.0 °F - 44.6 °F 59% 30.18 in 6.2 mi North 9.2 mph - N/A   Mostly Cloudy
7:50 PM 55.4 °F - 44.6 °F 67% 30.21 in 6.2 mi North 11.5 mph - N/A   Mostly Cloudy
8:50 PM 55.4 °F - 44.6 °F 67% 30.21 in 6.2 mi NE 10.4 mph - N/A   Mostly Cloudy
9:00 PM 55 °F - 43 °F 54%  in 6 mi NE 10.4 mph - -   Mostly Cloudy
9:50 PM 55.4 °F - 42.8 °F 63% 30.21 in 6.2 mi NE 8.1 mph - N/A   Mostly Cloudy
10:50 PM 53.6 °F - 42.8 °F 67% 30.21 in 6.2 mi ENE 10.4 mph - N/A   Mostly Cloudy
11:50 PM 53.6 °F - 42.8 °F 67% 30.21 in 6.2 mi ENE 8.1 mph - N/A   Mostly Cloudy